Time,TemperatureF,DewpointF,PressureIn,WindDirection,WindDirectionDegrees,WindSpeedMPH,WindSpeedGustMPH,Humidity,HourlyPrecipIn,Conditions,Clouds,dailyrainin,SoftwareType,DateUTC
2013-03-24 00:02:00,57.0,11.3,30.02,NNE,22,4.0,6.0,16,0.00,,SKC,0.00,VWS V14.01,2013-03-24 07:02:00,
2013-03-24 00:07:00,57.0,11.3,30.02,NNE,22,5.0,6.0,16,0.00,,SKC,0.00,VWS V14.01,2013-03-24 07:07:00,
2013-03-24 00:12:00,56.0,10.5,30.02,North,0,5.0,6.0,16,0.00,,SKC,0.00,VWS V14.01,2013-03-24 07:12:00,
2013-03-24 00:18:00,56.0,10.5,30.02,North,0,3.0,4.0,16,0.00,,SKC,0.00,VWS V14.01,2013-03-24 07:18:00,
2013-03-24 00:23:00,56.0,10.5,30.03,WNW,292,1.0,2.0,16,0.00,,SKC,0.00,VWS V14.01,2013-03-24 07:23:00,
2013-03-24 00:29:00,55.0,11.0,30.03,NW,315,3.0,3.0,17,0.00,,SKC,0.00,VWS V14.01,2013-03-24 07:29:00,
2013-03-24 00:35:00,54.0,11.5,30.03,NW,315,4.0,5.0,18,0.00,,SKC,0.00,VWS V14.01,2013-03-24 07:35:00,
2013-03-24 00:41:00,54.0,10.2,30.03,NW,315,5.0,5.0,17,0.00,,SKC,0.00,VWS V14.01,2013-03-24 07:41:00,
2013-03-24 00:46:00,54.0,10.2,30.03,NNW,338,2.0,3.0,17,0.00,,SKC,0.00,VWS V14.01,2013-03-24 07:46:00,
2013-03-24 00:51:00,54.0,10.2,30.03,NNW,338,1.0,2.0,17,0.00,,SKC,0.00,VWS V14.01,2013-03-24 07:51:00,
2013-03-24 00:56:00,54.0,11.5,30.03,ESE,112,0.0,0.0,18,0.00,,SKC,0.00,VWS V14.01,2013-03-24 07:56:00,
2013-03-24 01:02:00,52.0,12.2,30.03,East,90,0.0,0.0,20,0.00,,SKC,0.00,VWS V14.01,2013-03-24 08:02:00,
2013-03-24 01:08:00,50.0,12.7,30.03,NNE,22,2.0,2.0,22,0.00,,SKC,0.00,VWS V14.01,2013-03-24 08:08:00,
2013-03-24 01:14:00,50.0,11.6,30.03,North,0,3.0,4.0,21,0.00,,SKC,0.00,VWS V14.01,2013-03-24 08:14:00,
2013-03-24 01:20:00,50.0,12.7,30.03,NNE,22,5.0,6.0,22,0.00,,SKC,0.00,VWS V14.01,2013-03-24 08:20:00,
2013-03-24 01:25:00,50.0,12.7,30.03,North,0,5.0,5.0,22,0.00,,SKC,0.00,VWS V14.01,2013-03-24 08:25:00,
2013-03-24 01:30:00,50.0,12.7,30.03,North,0,5.0,6.0,22,0.00,,SKC,0.00,VWS V14.01,2013-03-24 08:30:00,
2013-03-24 01:35:00,51.0,12.5,30.03,North,0,5.0,6.0,21,0.00,,SKC,0.00,VWS V14.01,2013-03-24 08:35:00,
2013-03-24 01:41:00,52.0,12.2,30.03,NNE,22,3.0,4.0,20,0.00,,SKC,0.00,VWS V14.01,2013-03-24 08:41:00,
2013-03-24 01:47:00,52.0,11.0,30.03,NNW,338,4.0,5.0,19,0.00,,SKC,0.00,VWS V14.01,2013-03-24 08:47:00,
2013-03-24 01:52:00,52.0,11.0,30.03,NNW,338,4.0,5.0,19,0.00,,SKC,0.00,VWS V14.01,2013-03-24 08:52:00,
2013-03-24 01:58:00,52.0,11.0,30.02,NNE,22,5.0,6.0,19,0.00,,SKC,0.00,VWS V14.01,2013-03-24 08:58:00,
2013-03-24 02:03:00,53.0,11.9,30.02,NNE,22,3.0,5.0,19,0.00,,SKC,0.00,VWS V14.01,2013-03-24 09:03:00,
2013-03-24 02:08:00,52.0,11.0,30.02,North,0,5.0,5.0,19,0.00,,SKC,0.00,VWS V14.01,2013-03-24 09:08:00,
2013-03-24 02:13:00,52.0,12.2,30.02,North,0,5.0,5.0,20,0.00,,SKC,0.00,VWS V14.01,2013-03-24 09:13:00,
2013-03-24 02:19:00,52.0,12.2,30.02,North,0,6.0,6.0,20,0.00,,SKC,0.00,VWS V14.01,2013-03-24 09:19:00,
2013-03-24 02:24:00,52.0,11.0,30.02,North,0,6.0,6.0,19,0.00,,SKC,0.00,VWS V14.01,2013-03-24 09:24:00,
2013-03-24 02:29:00,52.0,11.0,30.02,NNE,22,4.0,5.0,19,0.00,,SKC,0.00,VWS V14.01,2013-03-24 09:29:00,
2013-03-24 02:34:00,52.0,11.0,30.02,NNW,338,5.0,5.0,19,0.00,,SKC,0.00,VWS V14.01,2013-03-24 09:34:00,
2013-03-24 02:39:00,52.0,9.8,30.01,NNE,22,5.0,6.0,18,0.00,,SKC,0.00,VWS V14.01,2013-03-24 09:39:00,
2013-03-24 02:45:00,53.0,10.6,30.01,NW,315,5.0,6.0,18,0.00,,SKC,0.00,VWS V14.01,2013-03-24 09:45:00,
2013-03-24 02:50:00,53.0,10.6,30.01,NNW,338,5.0,7.0,18,0.00,,SKC,0.00,VWS V14.01,2013-03-24 09:50:00,
2013-03-24 02:55:00,53.0,9.4,30.01,North,0,6.0,6.0,17,0.00,,SKC,0.00,VWS V14.01,2013-03-24 09:55:00,
2013-03-24 03:00:00,53.0,9.4,30.01,North,0,4.0,5.0,17,0.00,,SKC,0.00,VWS V14.01,2013-03-24 10:00:00,
2013-03-24 03:05:00,54.0,8.8,30.01,North,0,4.0,5.0,16,0.00,,SKC,0.00,VWS V14.01,2013-03-24 10:05:00,
2013-03-24 03:11:00,54.0,10.2,30.01,North,0,6.0,7.0,17,0.00,,SKC,0.00,VWS V14.01,2013-03-24 10:11:00,
2013-03-24 03:17:00,53.0,9.4,30.01,NNW,338,6.0,6.0,17,0.00,,SKC,0.00,VWS V14.01,2013-03-24 10:17:00,
2013-03-24 03:22:00,53.0,9.4,30.01,NNW,338,4.0,4.0,17,0.00,,SKC,0.00,VWS V14.01,2013-03-24 10:22:00,
2013-03-24 03:28:00,53.0,8.0,30.00,North,0,5.0,6.0,16,0.00,,SKC,0.00,VWS V14.01,2013-03-24 10:28:00,
2013-03-24 03:33:00,53.0,9.4,30.00,North,0,5.0,5.0,17,0.00,,SKC,0.00,VWS V14.01,2013-03-24 10:33:00,
2013-03-24 03:38:00,53.0,8.0,30.00,North,0,6.0,6.0,16,0.00,,SKC,0.00,VWS V14.01,2013-03-24 10:38:00,
2013-03-24 03:43:00,54.0,10.2,30.00,NNW,338,5.0,6.0,17,0.00,,SKC,0.00,VWS V14.01,2013-03-24 10:43:00,
2013-03-24 03:49:00,52.0,9.8,30.00,North,0,3.0,4.0,18,0.00,,SKC,0.00,VWS V14.01,2013-03-24 10:49:00,
2013-03-24 03:55:00,51.0,10.2,30.01,South,180,3.0,3.0,19,0.00,,SKC,0.00,VWS V14.01,2013-03-24 10:55:00,
2013-03-24 04:01:00,49.0,12.8,30.01,SSE,158,0.0,0.0,23,0.00,,SKC,0.00,VWS V14.01,2013-03-24 11:01:00,
2013-03-24 04:06:00,47.0,13.0,30.01,ESE,112,0.0,0.0,25,0.00,,SKC,0.00,VWS V14.01,2013-03-24 11:06:00,
2013-03-24 04:12:00,45.0,12.2,30.01,ENE,68,0.0,0.0,26,0.00,,SKC,0.00,VWS V14.01,2013-03-24 11:12:00,
2013-03-24 04:17:00,45.0,13.1,30.01,ENE,68,0.0,0.0,27,0.00,,SKC,0.00,VWS V14.01,2013-03-24 11:17:00,
2013-03-24 04:22:00,45.0,13.1,30.01,NE,45,0.0,0.0,27,0.00,,SKC,0.00,VWS V14.01,2013-03-24 11:22:00,
2013-03-24 04:27:00,44.0,12.2,30.01,NNE,22,3.0,3.0,27,0.00,,SKC,0.00,VWS V14.01,2013-03-24 11:27:00,
2013-03-24 04:32:00,44.0,12.2,30.01,North,0,2.0,3.0,27,0.00,,SKC,0.00,VWS V14.01,2013-03-24 11:32:00,
2013-03-24 04:38:00,44.0,12.2,30.01,NNE,22,6.0,7.0,27,0.00,,SKC,0.00,VWS V14.01,2013-03-24 11:38:00,
2013-03-24 04:43:00,45.0,12.2,30.01,NNW,338,3.0,5.0,26,0.00,,SKC,0.00,VWS V14.01,2013-03-24 11:43:00,
2013-03-24 04:48:00,46.0,12.2,30.01,NNE,22,4.0,4.0,25,0.00,,SKC,0.00,VWS V14.01,2013-03-24 11:48:00,
2013-03-24 04:53:00,46.0,12.2,30.01,SSE,158,0.0,0.0,25,0.00,,SKC,0.00,VWS V14.01,2013-03-24 11:53:00,
2013-03-24 04:59:00,45.0,13.9,30.01,NE,45,2.0,3.0,28,0.00,,SKC,0.00,VWS V14.01,2013-03-24 11:59:00,
2013-03-24 05:05:00,44.0,13.0,30.01,NNE,22,1.0,1.0,28,0.00,,SKC,0.00,VWS V14.01,2013-03-24 12:05:00,
2013-03-24 05:11:00,44.0,13.0,30.01,North,0,3.0,3.0,28,0.00,,SKC,0.00,VWS V14.01,2013-03-24 12:11:00,
2013-03-24 05:16:00,45.0,12.2,30.01,North,0,0.0,0.0,26,0.00,,SKC,0.00,VWS V14.01,2013-03-24 12:16:00,
2013-03-24 05:21:00,45.0,12.2,30.01,NE,45,0.0,0.0,26,0.00,,SKC,0.00,VWS V14.01,2013-03-24 12:21:00,
2013-03-24 05:27:00,45.0,11.3,30.01,NE,45,3.0,3.0,25,0.00,,SKC,0.00,VWS V14.01,2013-03-24 12:27:00,
2013-03-24 05:32:00,45.0,12.2,30.01,NNE,22,1.0,2.0,26,0.00,,SKC,0.00,VWS V14.01,2013-03-24 12:32:00,
2013-03-24 05:37:00,44.0,13.0,30.01,NNE,22,1.0,1.0,28,0.00,,SKC,0.00,VWS V14.01,2013-03-24 12:37:00,
2013-03-24 05:42:00,44.0,13.0,30.02,North,0,3.0,3.0,28,0.00,,SKC,0.00,VWS V14.01,2013-03-24 12:42:00,
2013-03-24 05:47:00,44.0,13.0,30.01,NNE,22,6.0,6.0,28,0.00,,SKC,0.00,VWS V14.01,2013-03-24 12:47:00,
2013-03-24 05:53:00,45.0,13.1,30.01,NNE,22,5.0,5.0,27,0.00,,SKC,0.00,VWS V14.01,2013-03-24 12:53:00,
2013-03-24 05:58:00,46.0,12.2,30.02,North,0,3.0,4.0,25,0.00,,SKC,0.00,VWS V14.01,2013-03-24 12:58:00,
2013-03-24 06:03:00,46.0,11.2,30.01,NNE,22,5.0,6.0,24,0.00,,SKC,0.00,VWS V14.01,2013-03-24 13:03:00,
2013-03-24 06:08:00,47.0,11.1,30.01,North,0,4.0,4.0,23,0.00,,SKC,0.00,VWS V14.01,2013-03-24 13:08:00,
2013-03-24 06:13:00,48.0,12.0,30.02,NNE,22,4.0,4.0,23,0.00,,SKC,0.00,VWS V14.01,2013-03-24 13:13:00,
2013-03-24 06:18:00,48.0,11.0,30.02,North,0,1.0,2.0,22,0.00,,SKC,0.00,VWS V14.01,2013-03-24 13:18:00,
2013-03-24 06:24:00,48.0,11.0,30.02,NNW,338,3.0,3.0,22,0.00,,SKC,0.00,VWS V14.01,2013-03-24 13:24:00,
2013-03-24 06:30:00,49.0,10.8,30.02,North,0,1.0,2.0,21,0.00,,SKC,0.00,VWS V14.01,2013-03-24 13:30:00,
2013-03-24 06:35:00,49.0,11.8,30.02,ESE,112,0.0,0.0,22,0.00,,SKC,0.00,VWS V14.01,2013-03-24 13:35:00,
2013-03-24 06:40:00,48.0,11.0,30.02,ESE,112,0.0,0.0,22,0.00,,SKC,0.00,VWS V14.01,2013-03-24 13:40:00,
2013-03-24 06:45:00,47.0,11.1,30.02,ESE,112,0.0,0.0,23,0.00,,SKC,0.00,VWS V14.01,2013-03-24 13:45:00,
2013-03-24 06:50:00,47.0,12.1,30.02,ESE,112,0.0,0.0,24,0.00,,SKC,0.00,VWS V14.01,2013-03-24 13:50:00,
2013-03-24 06:55:00,46.0,13.1,30.02,ESE,112,0.0,0.0,26,0.00,,SKC,0.00,VWS V14.01,2013-03-24 13:55:00,
2013-03-24 07:00:00,46.0,13.9,30.02,ESE,112,0.0,0.0,27,0.00,,SKC,0.00,VWS V14.01,2013-03-24 14:00:00,
2013-03-24 07:05:00,46.0,13.9,30.02,ESE,112,0.0,0.0,27,0.00,,SKC,0.00,VWS V14.01,2013-03-24 14:05:00,
2013-03-24 07:10:00,46.0,14.7,30.02,ESE,112,0.0,0.0,28,0.00,,SKC,0.00,VWS V14.01,2013-03-24 14:10:00,
2013-03-24 07:15:00,47.0,14.8,30.02,ESE,112,0.0,0.0,27,0.00,,SKC,0.00,VWS V14.01,2013-03-24 14:15:00,
2013-03-24 07:20:00,47.0,15.6,30.02,ESE,112,0.0,0.0,28,0.00,,SKC,0.00,VWS V14.01,2013-03-24 14:20:00,
2013-03-24 07:25:00,48.0,16.5,30.02,East,90,0.0,0.0,28,0.00,,SKC,0.00,VWS V14.01,2013-03-24 14:25:00,
2013-03-24 07:30:00,48.0,15.6,30.03,ESE,112,0.0,0.0,27,0.00,,SKC,0.00,VWS V14.01,2013-03-24 14:30:00,
2013-03-24 07:35:00,49.0,16.5,30.03,SE,135,2.0,3.0,27,0.00,,SKC,0.00,VWS V14.01,2013-03-24 14:35:00,
2013-03-24 07:40:00,49.0,15.6,30.03,ESE,112,0.0,0.0,26,0.00,,SKC,0.00,VWS V14.01,2013-03-24 14:40:00,
2013-03-24 07:45:00,49.0,15.6,30.03,ESE,112,0.0,0.0,26,0.00,,SKC,0.00,VWS V14.01,2013-03-24 14:45:00,
2013-03-24 07:50:00,51.0,16.4,30.03,ESE,112,0.0,0.0,25,0.00,,SKC,0.00,VWS V14.01,2013-03-24 14:50:00,
2013-03-24 07:55:00,52.0,16.4,30.03,ESE,112,0.0,0.0,24,0.00,,SKC,0.00,VWS V14.01,2013-03-24 14:55:00,
2013-03-24 08:00:00,53.0,16.2,30.03,ESE,112,0.0,0.0,23,0.00,,SKC,0.00,VWS V14.01,2013-03-24 15:00:00,
2013-03-24 08:06:00,54.0,17.1,30.03,ESE,112,0.0,0.0,23,0.00,,SKC,0.00,VWS V14.01,2013-03-24 15:06:00,
2013-03-24 08:11:00,55.0,16.9,30.03,ESE,112,0.0,0.0,22,0.00,,SKC,0.00,VWS V14.01,2013-03-24 15:11:00,
2013-03-24 08:16:00,56.0,16.6,30.04,ESE,112,0.0,0.0,21,0.00,,SKC,0.00,VWS V14.01,2013-03-24 15:16:00,
2013-03-24 08:22:00,56.0,15.5,30.04,SE,135,0.0,1.0,20,0.00,,SKC,0.00,VWS V14.01,2013-03-24 15:22:00,
2013-03-24 08:27:00,57.0,15.2,30.04,SSE,158,0.0,0.0,19,0.00,,SKC,0.00,VWS V14.01,2013-03-24 15:27:00,
2013-03-24 08:32:00,58.0,16.0,30.04,South,180,0.0,0.0,19,0.00,,SKC,0.00,VWS V14.01,2013-03-24 15:32:00,
2013-03-24 08:37:00,59.0,16.8,30.04,SSE,158,1.0,1.0,19,0.00,,SKC,0.00,VWS V14.01,2013-03-24 15:37:00,
2013-03-24 08:42:00,60.0,16.4,30.04,South,180,0.0,1.0,18,0.00,,SKC,0.00,VWS V14.01,2013-03-24 15:42:00,
2013-03-24 08:48:00,60.0,16.4,30.04,ESE,112,0.0,1.0,18,0.00,,SKC,0.00,VWS V14.01,2013-03-24 15:48:00,
2013-03-24 08:53:00,60.0,17.6,30.04,SE,135,2.0,2.0,19,0.00,,SKC,0.00,VWS V14.01,2013-03-24 15:53:00,
2013-03-24 08:58:00,60.0,17.6,30.04,SSW,202,0.0,1.0,19,0.00,,SKC,0.00,VWS V14.01,2013-03-24 15:58:00,
2013-03-24 09:03:00,61.0,18.5,30.04,SSE,158,2.0,2.0,19,0.00,,SKC,0.00,VWS V14.01,2013-03-24 16:03:00,
2013-03-24 09:08:00,61.0,17.2,30.04,SSE,158,0.0,1.0,18,0.00,,SKC,0.00,VWS V14.01,2013-03-24 16:08:00,
2013-03-24 09:13:00,62.0,18.0,30.04,SW,225,0.0,1.0,18,0.00,,SKC,0.00,VWS V14.01,2013-03-24 16:13:00,
2013-03-24 09:18:00,62.0,18.0,30.04,SW,225,3.0,3.0,18,0.00,,SKC,0.00,VWS V14.01,2013-03-24 16:18:00,
2013-03-24 09:23:00,63.0,17.5,30.04,SSW,202,0.0,0.0,17,0.00,,SKC,0.00,VWS V14.01,2013-03-24 16:23:00,
2013-03-24 09:28:00,64.0,18.3,30.03,SSW,202,2.0,3.0,17,0.00,,SKC,0.00,VWS V14.01,2013-03-24 16:28:00,
2013-03-24 09:33:00,65.0,17.8,30.03,East,90,2.0,3.0,16,0.00,,SKC,0.00,VWS V14.01,2013-03-24 16:33:00,
2013-03-24 09:38:00,65.0,17.8,30.03,SSW,202,2.0,3.0,16,0.00,,SKC,0.00,VWS V14.01,2013-03-24 16:38:00,
2013-03-24 09:43:00,66.0,18.5,30.03,SE,135,1.0,3.0,16,0.00,,SKC,0.00,VWS V14.01,2013-03-24 16:43:00,
2013-03-24 09:48:00,67.0,17.9,30.03,SSW,202,0.0,0.0,15,0.00,,SKC,0.00,VWS V14.01,2013-03-24 16:48:00,
2013-03-24 09:53:00,68.0,18.7,30.03,SSE,158,1.0,2.0,15,0.00,,SKC,0.00,VWS V14.01,2013-03-24 16:53:00,
2013-03-24 09:58:00,68.0,17.1,30.03,SSE,158,5.0,5.0,14,0.00,,SKC,0.00,VWS V14.01,2013-03-24 16:58:00,
2013-03-24 10:03:00,68.0,15.4,30.03,South,180,6.0,8.0,13,0.00,,SKC,0.00,VWS V14.01,2013-03-24 17:03:00,
2013-03-24 10:08:00,69.0,14.3,30.03,South,180,5.0,5.0,12,0.00,,SKC,0.00,VWS V14.01,2013-03-24 17:08:00,
2013-03-24 10:13:00,70.0,15.1,30.03,SSE,158,2.0,3.0,12,0.00,,SKC,0.00,VWS V14.01,2013-03-24 17:13:00,
2013-03-24 10:18:00,70.0,13.1,30.03,SE,135,7.0,8.0,11,0.00,,SKC,0.00,VWS V14.01,2013-03-24 17:18:00,
2013-03-24 10:23:00,70.0,13.1,30.03,SE,135,1.0,2.0,11,0.00,,SKC,0.00,VWS V14.01,2013-03-24 17:23:00,
2013-03-24 10:28:00,70.0,13.1,30.03,SSE,158,1.0,1.0,11,0.00,,SKC,0.00,VWS V14.01,2013-03-24 17:28:00,
2013-03-24 10:33:00,70.0,13.1,30.03,SSW,202,7.0,7.0,11,0.00,,SKC,0.00,VWS V14.01,2013-03-24 17:33:00,
2013-03-24 10:38:00,70.0,13.1,30.03,ESE,112,6.0,6.0,11,0.00,,SKC,0.00,VWS V14.01,2013-03-24 17:38:00,
2013-03-24 10:43:00,70.0,11.0,30.03,South,180,3.0,5.0,10,0.00,,SKC,0.00,VWS V14.01,2013-03-24 17:43:00,
2013-03-24 10:48:00,71.0,13.9,30.02,SSW,202,3.0,5.0,11,0.00,,SKC,0.00,VWS V14.01,2013-03-24 17:48:00,
2013-03-24 10:53:00,71.0,11.7,30.02,West,270,5.0,6.0,10,0.00,,SKC,0.00,VWS V14.01,2013-03-24 17:53:00,
2013-03-24 10:58:00,71.0,11.7,30.02,South,180,3.0,5.0,10,0.00,,SKC,0.00,VWS V14.01,2013-03-24 17:58:00,
2013-03-24 11:03:00,71.0,11.7,30.02,SSW,202,5.0,5.0,10,0.00,,SKC,0.00,VWS V14.01,2013-03-24 18:03:00,
2013-03-24 11:08:00,71.0,11.7,30.02,SSW,202,2.0,3.0,10,0.00,,SKC,0.00,VWS V14.01,2013-03-24 18:08:00,
2013-03-24 11:13:00,72.0,12.5,30.02,SW,225,1.0,1.0,10,0.00,,SKC,0.00,VWS V14.01,2013-03-24 18:13:00,
2013-03-24 11:18:00,73.0,13.3,30.02,SSE,158,5.0,5.0,10,0.00,,SKC,0.00,VWS V14.01,2013-03-24 18:18:00,
2013-03-24 11:23:00,70.0,11.0,30.02,West,270,5.0,6.0,10,0.00,,SKC,0.00,VWS V14.01,2013-03-24 18:23:00,
2013-03-24 11:28:00,70.0,11.0,30.01,WSW,248,3.0,3.0,10,0.00,,SKC,0.00,VWS V14.01,2013-03-24 18:28:00,
2013-03-24 11:34:00,71.0,11.7,30.01,SSE,158,1.0,3.0,10,0.00,,SKC,0.00,VWS V14.01,2013-03-24 18:34:00,
2013-03-24 11:39:00,72.0,12.5,30.01,ENE,68,5.0,6.0,10,0.00,,SKC,0.00,VWS V14.01,2013-03-24 18:39:00,
2013-03-24 11:44:00,72.0,12.5,30.01,SE,135,3.0,5.0,10,0.00,,SKC,0.00,VWS V14.01,2013-03-24 18:44:00,
2013-03-24 11:49:00,72.0,12.5,30.01,WSW,248,5.0,6.0,10,0.00,,SKC,0.00,VWS V14.01,2013-03-24 18:49:00,
2013-03-24 11:54:00,72.0,12.5,30.00,NW,315,6.0,6.0,10,0.00,,SKC,0.00,VWS V14.01,2013-03-24 18:54:00,
2013-03-24 11:59:00,71.0,11.7,30.00,West,270,7.0,7.0,10,0.00,,SKC,0.00,VWS V14.01,2013-03-24 18:59:00,
2013-03-24 12:04:00,71.0,11.7,30.00,West,270,6.0,8.0,10,0.00,,SKC,0.00,VWS V14.01,2013-03-24 19:04:00,
2013-03-24 12:09:00,71.0,11.7,30.00,WNW,292,5.0,5.0,10,0.00,,SKC,0.00,VWS V14.01,2013-03-24 19:09:00,
2013-03-24 12:14:00,72.0,10.1,30.00,North,0,1.0,1.0,9,0.00,,SKC,0.00,VWS V14.01,2013-03-24 19:14:00,
2013-03-24 12:19:00,73.0,10.9,30.00,ENE,68,0.0,0.0,9,0.00,,SKC,0.00,VWS V14.01,2013-03-24 19:19:00,
2013-03-24 12:24:00,74.0,11.6,29.99,SSW,202,3.0,3.0,9,0.00,,SKC,0.00,VWS V14.01,2013-03-24 19:24:00,
2013-03-24 12:29:00,73.0,10.9,29.99,SSW,202,3.0,5.0,9,0.00,,SKC,0.00,VWS V14.01,2013-03-24 19:29:00,
2013-03-24 12:34:00,73.0,10.9,29.99,SSW,202,2.0,3.0,9,0.00,,SKC,0.00,VWS V14.01,2013-03-24 19:34:00,
2013-03-24 12:39:00,74.0,11.6,29.99,WSW,248,0.0,1.0,9,0.00,,SKC,0.00,VWS V14.01,2013-03-24 19:39:00,
2013-03-24 12:44:00,73.0,10.9,29.99,ENE,68,2.0,2.0,9,0.00,,SKC,0.00,VWS V14.01,2013-03-24 19:44:00,
2013-03-24 12:49:00,74.0,11.6,29.99,WSW,248,6.0,8.0,9,0.00,,SKC,0.00,VWS V14.01,2013-03-24 19:49:00,
2013-03-24 12:54:00,73.0,10.9,29.99,SW,225,8.0,8.0,9,0.00,,SKC,0.00,VWS V14.01,2013-03-24 19:54:00,
2013-03-24 12:59:00,73.0,10.9,29.98,WSW,248,8.0,8.0,9,0.00,,SKC,0.00,VWS V14.01,2013-03-24 19:59:00,
2013-03-24 13:04:00,73.0,10.9,29.98,WSW,248,4.0,5.0,9,0.00,,SKC,0.00,VWS V14.01,2013-03-24 20:04:00,
2013-03-24 13:09:00,73.0,10.9,29.98,East,90,5.0,5.0,9,0.00,,SKC,0.00,VWS V14.01,2013-03-24 20:09:00,
2013-03-24 13:14:00,73.0,10.9,29.98,WSW,248,8.0,9.0,9,0.00,,SKC,0.00,VWS V14.01,2013-03-24 20:14:00,
2013-03-24 13:19:00,74.0,11.6,29.97,SW,225,7.0,9.0,9,0.00,,SKC,0.00,VWS V14.01,2013-03-24 20:19:00,
2013-03-24 13:24:00,73.0,10.9,29.97,WSW,248,12.0,13.0,9,0.00,,SKC,0.00,VWS V14.01,2013-03-24 20:24:00,
2013-03-24 13:29:00,72.0,10.1,29.97,West,270,5.0,5.0,9,0.00,,SKC,0.00,VWS V14.01,2013-03-24 20:29:00,
2013-03-24 13:34:00,73.0,8.2,29.96,WSW,248,0.0,1.0,8,0.00,,SKC,0.00,VWS V14.01,2013-03-24 20:34:00,
2013-03-24 13:39:00,73.0,10.9,29.96,West,270,14.0,14.0,9,0.00,,SKC,0.00,VWS V14.01,2013-03-24 20:39:00,
2013-03-24 13:44:00,73.0,10.9,29.96,NW,315,3.0,3.0,9,0.00,,SKC,0.00,VWS V14.01,2013-03-24 20:44:00,
2013-03-24 13:49:00,74.0,11.6,29.96,WNW,292,8.0,8.0,9,0.00,,SKC,0.00,VWS V14.01,2013-03-24 20:49:00,
2013-03-24 13:54:00,73.0,10.9,29.96,WSW,248,4.0,5.0,9,0.00,,SKC,0.00,VWS V14.01,2013-03-24 20:54:00,
2013-03-24 13:59:00,73.0,10.9,29.96,WSW,248,6.0,9.0,9,0.00,,SKC,0.00,VWS V14.01,2013-03-24 20:59:00,
2013-03-24 14:04:00,73.0,10.9,29.95,SSE,158,3.0,5.0,9,0.00,,SKC,0.00,VWS V14.01,2013-03-24 21:04:00,
2013-03-24 14:09:00,75.0,9.8,29.95,SSW,202,3.0,5.0,8,0.00,,SKC,0.00,VWS V14.01,2013-03-24 21:09:00,
2013-03-24 14:14:00,74.0,11.6,29.95,WNW,292,9.0,10.0,9,0.00,,SKC,0.00,VWS V14.01,2013-03-24 21:14:00,
2013-03-24 14:19:00,74.0,11.6,29.95,SW,225,5.0,5.0,9,0.00,,SKC,0.00,VWS V14.01,2013-03-24 21:19:00,
2013-03-24 14:24:00,74.0,11.6,29.95,West,270,5.0,7.0,9,0.00,,SKC,0.00,VWS V14.01,2013-03-24 21:24:00,
2013-03-24 14:29:00,73.0,10.9,29.95,WSW,248,8.0,8.0,9,0.00,,SKC,0.00,VWS V14.01,2013-03-24 21:29:00,
2013-03-24 14:34:00,73.0,10.9,29.94,West,270,5.0,5.0,9,0.00,,SKC,0.00,VWS V14.01,2013-03-24 21:34:00,
2013-03-24 14:39:00,74.0,14.0,29.94,WNW,292,9.0,11.0,10,0.00,,SKC,0.00,VWS V14.01,2013-03-24 21:39:00,
2013-03-24 14:44:00,73.0,10.9,29.94,WSW,248,5.0,6.0,9,0.00,,SKC,0.00,VWS V14.01,2013-03-24 21:44:00,
2013-03-24 14:49:00,72.0,10.1,29.95,WNW,292,8.0,9.0,9,0.00,,SKC,0.00,VWS V14.01,2013-03-24 21:49:00,
2013-03-24 14:54:00,73.0,13.3,29.94,WNW,292,3.0,4.0,10,0.00,,SKC,0.00,VWS V14.01,2013-03-24 21:54:00,
2013-03-24 14:59:00,74.0,14.0,29.94,SW,225,5.0,5.0,10,0.00,,SKC,0.00,VWS V14.01,2013-03-24 21:59:00,
2013-03-24 15:04:00,75.0,14.8,29.94,NW,315,6.0,6.0,10,0.00,,SKC,0.00,VWS V14.01,2013-03-24 22:04:00,
2013-03-24 15:09:00,74.0,14.0,29.94,West,270,8.0,11.0,10,0.00,,SKC,0.00,VWS V14.01,2013-03-24 22:09:00,
2013-03-24 15:14:00,74.0,14.0,29.93,WNW,292,6.0,8.0,10,0.00,,SKC,0.00,VWS V14.01,2013-03-24 22:14:00,
2013-03-24 15:19:00,74.0,14.0,29.93,West,270,7.0,7.0,10,0.00,,SKC,0.00,VWS V14.01,2013-03-24 22:19:00,
2013-03-24 15:24:00,73.0,10.9,29.93,NW,315,4.0,6.0,9,0.00,,SKC,0.00,VWS V14.01,2013-03-24 22:24:00,
2013-03-24 15:29:00,74.0,14.0,29.93,WNW,292,12.0,12.0,10,0.00,,SKC,0.00,VWS V14.01,2013-03-24 22:29:00,
2013-03-24 15:34:00,74.0,14.0,29.93,WSW,248,8.0,8.0,10,0.00,,SKC,0.00,VWS V14.01,2013-03-24 22:34:00,
2013-03-24 15:39:00,73.0,13.3,29.93,NNW,338,8.0,9.0,10,0.00,,SKC,0.00,VWS V14.01,2013-03-24 22:39:00,
2013-03-24 15:44:00,73.0,13.3,29.93,West,270,7.0,9.0,10,0.00,,SKC,0.00,VWS V14.01,2013-03-24 22:44:00,
2013-03-24 15:49:00,74.0,14.0,29.93,West,270,8.0,8.0,10,0.00,,SKC,0.00,VWS V14.01,2013-03-24 22:49:00,
2013-03-24 15:54:00,73.0,10.9,29.93,SW,225,9.0,10.0,9,0.00,,SKC,0.00,VWS V14.01,2013-03-24 22:54:00,
2013-03-24 15:59:00,74.0,14.0,29.93,WSW,248,11.0,11.0,10,0.00,,SKC,0.00,VWS V14.01,2013-03-24 22:59:00,
2013-03-24 16:04:00,73.0,13.3,29.93,NW,315,11.0,11.0,10,0.00,,SKC,0.00,VWS V14.01,2013-03-24 23:04:00,
2013-03-24 16:09:00,73.0,13.3,29.93,SW,225,11.0,11.0,10,0.00,,SKC,0.00,VWS V14.01,2013-03-24 23:09:00,
2013-03-24 16:14:00,72.0,12.5,29.93,West,270,11.0,12.0,10,0.00,,SKC,0.00,VWS V14.01,2013-03-24 23:14:00,
2013-03-24 16:19:00,73.0,13.3,29.93,SW,225,9.0,9.0,10,0.00,,SKC,0.00,VWS V14.01,2013-03-24 23:19:00,
2013-03-24 16:24:00,72.0,12.5,29.93,West,270,9.0,10.0,10,0.00,,SKC,0.00,VWS V14.01,2013-03-24 23:24:00,
2013-03-24 16:29:00,73.0,13.3,29.93,WNW,292,10.0,10.0,10,0.00,,SKC,0.00,VWS V14.01,2013-03-24 23:29:00,
2013-03-24 16:34:00,73.0,13.3,29.93,WNW,292,8.0,8.0,10,0.00,,SKC,0.00,VWS V14.01,2013-03-24 23:34:00,
2013-03-24 16:39:00,72.0,12.5,29.93,West,270,9.0,9.0,10,0.00,,SKC,0.00,VWS V14.01,2013-03-24 23:39:00,
2013-03-24 16:44:00,72.0,12.5,29.93,West,270,8.0,9.0,10,0.00,,SKC,0.00,VWS V14.01,2013-03-24 23:44:00,
2013-03-24 16:49:00,72.0,12.5,29.93,West,270,8.0,8.0,10,0.00,,SKC,0.00,VWS V14.01,2013-03-24 23:49:00,
2013-03-24 16:54:00,72.0,12.5,29.93,WNW,292,9.0,9.0,10,0.00,,SKC,0.00,VWS V14.01,2013-03-24 23:54:00,
2013-03-24 16:59:00,72.0,12.5,29.93,WSW,248,9.0,9.0,10,0.00,,SKC,0.00,VWS V14.01,2013-03-24 23:59:00,
2013-03-24 17:04:00,72.0,12.5,29.93,West,270,7.0,10.0,10,0.00,,SKC,0.00,VWS V14.01,2013-03-25 00:04:00,
2013-03-24 17:09:00,72.0,12.5,29.93,WSW,248,13.0,13.0,10,0.00,,SKC,0.00,VWS V14.01,2013-03-25 00:09:00,
2013-03-24 17:14:00,71.0,11.7,29.93,WSW,248,7.0,9.0,10,0.00,,SKC,0.00,VWS V14.01,2013-03-25 00:14:00,
2013-03-24 17:19:00,71.0,11.7,29.93,WSW,248,13.0,13.0,10,0.00,,SKC,0.00,VWS V14.01,2013-03-25 00:19:00,
2013-03-24 17:24:00,71.0,11.7,29.93,WNW,292,8.0,10.0,10,0.00,,SKC,0.00,VWS V14.01,2013-03-25 00:24:00,
2013-03-24 17:29:00,71.0,11.7,29.93,West,270,10.0,10.0,10,0.00,,SKC,0.00,VWS V14.01,2013-03-25 00:29:00,
2013-03-24 17:34:00,71.0,11.7,29.93,WSW,248,10.0,10.0,10,0.00,,SKC,0.00,VWS V14.01,2013-03-25 00:34:00,
2013-03-24 17:39:00,71.0,11.7,29.93,WNW,292,9.0,9.0,10,0.00,,SKC,0.00,VWS V14.01,2013-03-25 00:39:00,
2013-03-24 17:45:00,70.0,13.1,29.93,WSW,248,8.0,10.0,11,0.00,,SKC,0.00,VWS V14.01,2013-03-25 00:45:00,
2013-03-24 17:50:00,70.0,11.0,29.93,NW,315,10.0,10.0,10,0.00,,SKC,0.00,VWS V14.01,2013-03-25 00:50:00,
2013-03-24 17:55:00,70.0,11.0,29.93,WNW,292,8.0,8.0,10,0.00,,SKC,0.00,VWS V14.01,2013-03-25 00:55:00,
2013-03-24 18:00:00,70.0,13.1,29.93,WNW,292,10.0,12.0,11,0.00,,SKC,0.00,VWS V14.01,2013-03-25 01:00:00,
2013-03-24 18:05:00,70.0,13.1,29.94,WNW,292,5.0,6.0,11,0.00,,SKC,0.00,VWS V14.01,2013-03-25 01:05:00,
2013-03-24 18:10:00,69.0,12.3,29.94,WNW,292,6.0,8.0,11,0.00,,SKC,0.00,VWS V14.01,2013-03-25 01:10:00,
2013-03-24 18:15:00,69.0,12.3,29.94,West,270,7.0,10.0,11,0.00,,SKC,0.00,VWS V14.01,2013-03-25 01:15:00,
2013-03-24 18:20:00,69.0,12.3,29.94,WNW,292,8.0,8.0,11,0.00,,SKC,0.00,VWS V14.01,2013-03-25 01:20:00,
2013-03-24 18:25:00,68.0,11.6,29.94,West,270,8.0,8.0,11,0.00,,SKC,0.00,VWS V14.01,2013-03-25 01:25:00,
2013-03-24 18:30:00,68.0,11.6,29.94,West,270,5.0,6.0,11,0.00,,SKC,0.00,VWS V14.01,2013-03-25 01:30:00,
2013-03-24 18:35:00,68.0,11.6,29.94,West,270,5.0,5.0,11,0.00,,SKC,0.00,VWS V14.01,2013-03-25 01:35:00,
2013-03-24 18:40:00,67.0,12.8,29.94,WNW,292,5.0,6.0,12,0.00,,SKC,0.00,VWS V14.01,2013-03-25 01:40:00,
2013-03-24 18:45:00,67.0,12.8,29.94,West,270,3.0,5.0,12,0.00,,SKC,0.00,VWS V14.01,2013-03-25 01:45:00,
2013-03-24 18:50:00,67.0,12.8,29.94,NW,315,6.0,6.0,12,0.00,,SKC,0.00,VWS V14.01,2013-03-25 01:50:00,
2013-03-24 18:55:00,67.0,12.8,29.95,NW,315,2.0,3.0,12,0.00,,SKC,0.00,VWS V14.01,2013-03-25 01:55:00,
2013-03-24 19:00:00,66.0,12.0,29.95,NW,315,4.0,5.0,12,0.00,,SKC,0.00,VWS V14.01,2013-03-25 02:00:00,
2013-03-24 19:05:00,66.0,12.0,29.94,NW,315,3.0,3.0,12,0.00,,SKC,0.00,VWS V14.01,2013-03-25 02:05:00,
2013-03-24 19:10:00,66.0,12.0,29.95,NNW,338,1.0,1.0,12,0.00,,SKC,0.00,VWS V14.01,2013-03-25 02:10:00,
2013-03-24 19:15:00,65.0,11.2,29.95,NNW,338,3.0,4.0,12,0.00,,SKC,0.00,VWS V14.01,2013-03-25 02:15:00,
2013-03-24 19:20:00,65.0,13.0,29.95,NNW,338,2.0,3.0,13,0.00,,SKC,0.00,VWS V14.01,2013-03-25 02:20:00,
2013-03-24 19:25:00,64.0,12.2,29.95,NNW,338,0.0,1.0,13,0.00,,SKC,0.00,VWS V14.01,2013-03-25 02:25:00,
2013-03-24 19:30:00,64.0,12.2,29.95,NNW,338,0.0,0.0,13,0.00,,SKC,0.00,VWS V14.01,2013-03-25 02:30:00,
2013-03-24 19:35:00,64.0,12.2,29.95,North,0,0.0,0.0,13,0.00,,SKC,0.00,VWS V14.01,2013-03-25 02:35:00,
2013-03-24 19:40:00,64.0,12.2,29.95,North,0,0.0,0.0,13,0.00,,SKC,0.00,VWS V14.01,2013-03-25 02:40:00,
2013-03-24 19:45:00,63.0,11.4,29.95,North,0,3.0,3.0,13,0.00,,SKC,0.00,VWS V14.01,2013-03-25 02:45:00,
2013-03-24 19:50:00,63.0,13.1,29.95,North,0,3.0,4.0,14,0.00,,SKC,0.00,VWS V14.01,2013-03-25 02:50:00,
2013-03-24 19:55:00,63.0,13.1,29.95,NNE,22,3.0,4.0,14,0.00,,SKC,0.00,VWS V14.01,2013-03-25 02:55:00,
2013-03-24 20:00:00,63.0,13.1,29.95,NNE,22,2.0,3.0,14,0.00,,SKC,0.00,VWS V14.01,2013-03-25 03:00:00,
2013-03-24 20:05:00,62.0,13.9,29.96,North,0,3.0,3.0,15,0.00,,SKC,0.00,VWS V14.01,2013-03-25 03:05:00,
2013-03-24 20:10:00,62.0,13.9,29.96,NNE,22,3.0,4.0,15,0.00,,SKC,0.00,VWS V14.01,2013-03-25 03:10:00,
2013-03-24 20:15:00,61.0,13.0,29.96,North,0,3.0,5.0,15,0.00,,SKC,0.00,VWS V14.01,2013-03-25 03:15:00,
2013-03-24 20:20:00,61.0,14.5,29.96,North,0,2.0,3.0,16,0.00,,SKC,0.00,VWS V14.01,2013-03-25 03:20:00,
2013-03-24 20:25:00,60.0,13.7,29.96,North,0,5.0,5.0,16,0.00,,SKC,0.00,VWS V14.01,2013-03-25 03:25:00,
2013-03-24 20:30:00,60.0,13.7,29.96,North,0,5.0,6.0,16,0.00,,SKC,0.00,VWS V14.01,2013-03-25 03:30:00,
2013-03-24 20:35:00,60.0,13.7,29.96,North,0,4.0,6.0,16,0.00,,SKC,0.00,VWS V14.01,2013-03-25 03:35:00,
2013-03-24 20:40:00,60.0,13.7,29.96,North,0,5.0,6.0,16,0.00,,SKC,0.00,VWS V14.01,2013-03-25 03:40:00,
2013-03-24 20:45:00,60.0,13.7,29.96,North,0,5.0,5.0,16,0.00,,SKC,0.00,VWS V14.01,2013-03-25 03:45:00,
2013-03-24 20:50:00,60.0,13.7,29.97,NNE,22,2.0,4.0,16,0.00,,SKC,0.00,VWS V14.01,2013-03-25 03:50:00,
2013-03-24 20:55:00,60.0,13.7,29.96,NW,315,3.0,4.0,16,0.00,,SKC,0.00,VWS V14.01,2013-03-25 03:55:00,
2013-03-24 21:00:00,60.0,13.7,29.97,NNE,22,5.0,6.0,16,0.00,,SKC,0.00,VWS V14.01,2013-03-25 04:00:00,
2013-03-24 21:01:00,59.0,14.3,29.97,North,0,5.0,5.0,17,0.00,,SKC,0.00,VWS V14.01,2013-03-25 04:01:00,
2013-03-24 21:02:00,59.0,14.3,29.97,NE,45,6.0,6.0,17,0.00,,SKC,0.00,VWS V14.01,2013-03-25 04:02:00,
2013-03-24 21:03:00,59.0,14.3,29.97,NNE,22,3.0,5.0,17,0.00,,SKC,0.00,VWS V14.01,2013-03-25 04:03:00,
2013-03-24 21:08:00,59.0,14.3,29.97,North,0,6.0,7.0,17,0.00,,SKC,0.00,VWS V14.01,2013-03-25 04:08:00,
2013-03-24 21:13:00,59.0,14.3,29.97,NNE,22,6.0,6.0,17,0.00,,SKC,0.00,VWS V14.01,2013-03-25 04:13:00,
2013-03-24 21:18:00,59.0,14.3,29.97,NNW,338,4.0,5.0,17,0.00,,SKC,0.00,VWS V14.01,2013-03-25 04:18:00,
2013-03-24 21:23:00,59.0,14.3,29.97,North,0,5.0,6.0,17,0.00,,SKC,0.00,VWS V14.01,2013-03-25 04:23:00,
2013-03-24 21:28:00,59.0,14.3,29.97,NNE,22,4.0,5.0,17,0.00,,SKC,0.00,VWS V14.01,2013-03-25 04:28:00,
2013-03-24 21:33:00,59.0,14.3,29.97,North,0,4.0,6.0,17,0.00,,SKC,0.00,VWS V14.01,2013-03-25 04:33:00,
2013-03-24 21:38:00,59.0,14.3,29.98,North,0,5.0,5.0,17,0.00,,SKC,0.00,VWS V14.01,2013-03-25 04:38:00,
2013-03-24 21:43:00,59.0,14.3,29.98,NE,45,4.0,5.0,17,0.00,,SKC,0.00,VWS V14.01,2013-03-25 04:43:00,
2013-03-24 21:48:00,59.0,14.3,29.97,NNE,22,4.0,4.0,17,0.00,,SKC,0.00,VWS V14.01,2013-03-25 04:48:00,
2013-03-24 21:53:00,59.0,14.3,29.98,NNE,22,5.0,5.0,17,0.00,,SKC,0.00,VWS V14.01,2013-03-25 04:53:00,
2013-03-24 21:58:00,59.0,14.3,29.98,North,0,4.0,4.0,17,0.00,,SKC,0.00,VWS V14.01,2013-03-25 04:58:00,
2013-03-24 22:03:00,59.0,14.3,29.98,North,0,5.0,6.0,17,0.00,,SKC,0.00,VWS V14.01,2013-03-25 05:03:00,
2013-03-24 22:08:00,59.0,15.6,29.98,North,0,5.0,6.0,18,0.00,,SKC,0.00,VWS V14.01,2013-03-25 05:08:00,
2013-03-24 22:13:00,58.0,14.8,29.98,North,0,3.0,3.0,18,0.00,,SKC,0.00,VWS V14.01,2013-03-25 05:13:00,
2013-03-24 22:18:00,58.0,14.8,29.97,North,0,7.0,7.0,18,0.00,,SKC,0.00,VWS V14.01,2013-03-25 05:18:00,
2013-03-24 22:23:00,58.0,16.0,29.98,NNE,22,4.0,5.0,19,0.00,,SKC,0.00,VWS V14.01,2013-03-25 05:23:00,
2013-03-24 22:28:00,58.0,16.0,29.98,North,0,7.0,8.0,19,0.00,,SKC,0.00,VWS V14.01,2013-03-25 05:28:00,
2013-03-24 22:33:00,57.0,15.2,29.98,North,0,6.0,6.0,19,0.00,,SKC,0.00,VWS V14.01,2013-03-25 05:33:00,
2013-03-24 22:38:00,57.0,15.2,29.98,NNE,22,5.0,5.0,19,0.00,,SKC,0.00,VWS V14.01,2013-03-25 05:38:00,
2013-03-24 22:43:00,58.0,16.0,29.98,North,0,5.0,6.0,19,0.00,,SKC,0.00,VWS V14.01,2013-03-25 05:43:00,
2013-03-24 22:48:00,57.0,15.2,29.98,NNE,22,4.0,4.0,19,0.00,,SKC,0.00,VWS V14.01,2013-03-25 05:48:00,
2013-03-24 22:54:00,57.0,15.2,29.98,North,0,4.0,6.0,19,0.00,,SKC,0.00,VWS V14.01,2013-03-25 05:54:00,
2013-03-24 22:59:00,58.0,14.8,29.98,North,0,4.0,5.0,18,0.00,,SKC,0.00,VWS V14.01,2013-03-25 05:59:00,
2013-03-24 23:04:00,58.0,16.0,29.98,North,0,6.0,7.0,19,0.00,,SKC,0.00,VWS V14.01,2013-03-25 06:04:00,
2013-03-24 23:09:00,58.0,16.0,29.98,North,0,5.0,5.0,19,0.00,,SKC,0.00,VWS V14.01,2013-03-25 06:09:00,
2013-03-24 23:14:00,58.0,16.0,29.97,North,0,4.0,5.0,19,0.00,,SKC,0.00,VWS V14.01,2013-03-25 06:14:00,
2013-03-24 23:19:00,58.0,16.0,29.98,NNW,338,4.0,5.0,19,0.00,,SKC,0.00,VWS V14.01,2013-03-25 06:19:00,
2013-03-24 23:24:00,58.0,16.0,29.98,NNW,338,4.0,5.0,19,0.00,,SKC,0.00,VWS V14.01,2013-03-25 06:24:00,
2013-03-24 23:29:00,58.0,16.0,29.98,NNW,338,5.0,5.0,19,0.00,,SKC,0.00,VWS V14.01,2013-03-25 06:29:00,
2013-03-24 23:34:00,57.0,15.2,29.97,North,0,3.0,5.0,19,0.00,,SKC,0.00,VWS V14.01,2013-03-25 06:34:00,
2013-03-24 23:39:00,57.0,15.2,29.97,NNE,22,7.0,7.0,19,0.00,,SKC,0.00,VWS V14.01,2013-03-25 06:39:00,
2013-03-24 23:44:00,58.0,16.0,29.97,North,0,5.0,8.0,19,0.00,,SKC,0.00,VWS V14.01,2013-03-25 06:44:00,
2013-03-24 23:49:00,58.0,16.0,29.97,NE,45,3.0,4.0,19,0.00,,SKC,0.00,VWS V14.01,2013-03-25 06:49:00,
2013-03-24 23:54:00,58.0,16.0,29.97,NNE,22,5.0,5.0,19,0.00,,SKC,0.00,VWS V14.01,2013-03-25 06:54:00,
2013-03-24 23:59:00,57.0,15.2,29.97,NNW,338,3.0,5.0,19,0.00,,SKC,0.00,VWS V14.01,2013-03-25 06:59:00,